Precipitable_Water
1.19 1.17 1.14 1.13 1.10 1.03 0.96 0.92 0.87 0.83 0.78 0.73 0.66 0.62 0.57 0.57 0.58 0.55 0.49 0.46 0.47 0.51 0.52 0.48 0.46 0.49 0.45 0.31 0.28 0.38 0.37 0.38 0.39 0.37 0.33 0.31 0.28 0.28 0.23 0.24 0.25 0.22 0.23 0.25 0.26 0.26 0.27
1.22 1.19 1.16 1.14 1.13 1.09 1.02 0.97 0.93 0.89 0.87 0.83 0.76 0.70 0.64 0.59 0.55 0.51 0.49 0.48 0.48 0.48 0.52 0.50 0.49 0.46 0.37 0.26 0.40 0.41 0.39 0.37 0.37 0.35 0.32 0.33 0.30 0.32 0.27 0.26 0.24 0.27 0.25 0.25 0.26 0.27 0.29
1.25 1.23 1.19 1.16 1.14 1.13 1.09 1.02 0.99 0.96 0.91 0.87 0.85 0.82 0.78 0.70 0.62 0.56 0.53 0.52 0.51 0.49 0.50 0.53 0.54 0.45 0.34 0.31 0.42 0.43 0.41 0.39 0.39 0.37 0.32 0.36 0.37 0.32 0.31 0.26 0.31 0.28 0.23 0.25 0.24 0.26 0.26
1.26 1.25 1.22 1.19 1.16 1.13 1.11 1.08 1.03 1.00 0.97 0.93 0.87 0.85 0.81 0.80 0.77 0.66 0.55 0.53 0.52 0.47 0.53 0.54 0.54 0.45 0.31 0.46 0.46 0.44 0.43 0.40 0.43 0.42 0.38 0.38 0.40 0.35 0.32 0.33 0.30 0.25 0.25 0.18 0.24 0.27 0.28
1.26 1.23 1.21 1.20 1.17 1.14 1.10 1.07 1.04 1.01 0.97 0.95 0.93 0.87 0.84 0.81 0.78 0.76 0.74 0.70 0.66 0.54 0.51 0.55 0.45 0.42 0.33 0.48 0.39 0.45 0.46 0.38 0.40 0.42 0.43 0.41 0.39 0.34 0.34 0.28 0.24 0.25 0.17 0.19 0.21 0.28 0.27
1.19 1.17 1.18 1.16 1.13 1.09 1.05 1.02 1.01 0.99 0.96 0.92 0.92 0.91 0.87 0.82 0.78 0.72 0.71 0.71 0.67 0.59 0.55 0.51 0.45 0.36 0.40 0.37 0.45 0.48 0.49 0.43 0.38 0.39 0.39 0.37 0.37 0.31 0.31 0.27 0.18 0.19 0.19 0.20 0.20 0.25 0.27
1.07 1.06 1.04 1.03 1.01 0.95 0.94 0.94 0.93 0.93 0.92 0.89 0.87 0.90 0.90 0.84 0.77 0.72 0.67 0.59 0.48 0.46 0.49 0.39 0.41 0.38 0.44 0.50 0.53 0.48 0.49 0.43 0.40 0.37 0.30 0.37 0.30 0.26 0.28 0.30 0.28 0.26 0.23 0.21 0.24 0.28 0.24
0.83 0.86 0.85 0.84 0.82 0.82 0.84 0.84 0.84 0.84 0.83 0.83 0.82 0.83 0.89 0.87 0.80 0.70 0.65 0.51 0.52 0.56 0.39 0.48 0.48 0.47 0.49 0.50 0.41 0.46 0.51 0.38 0.35 0.29 0.35 0.32 0.27 0.32 0.33 0.32 0.28 0.26 0.23 0.22 0.25 0.28 0.26
0.67 0.68 0.70 0.72 0.72 0.74 0.75 0.75 0.75 0.75 0.75 0.75 0.74 0.75 0.80 0.88 0.82 0.70 0.59 0.59 0.72 0.70 0.42 0.41 0.46 0.43 0.45 0.47 0.40 0.41 0.47 0.40 0.34 0.30 0.32 0.28 0.30 0.34 0.31 0.28 0.25 0.25 0.23 0.23 0.22 0.26 0.27
0.67 0.65 0.66 0.67 0.69 0.72 0.70 0.69 0.68 0.68 0.67 0.66 0.66 0.65 0.67 0.78 0.68 0.70 0.58 0.70 0.74 0.73 0.30 0.30 0.36 0.41 0.44 0.44 0.36 0.48 0.47 0.41 0.36 0.31 0.32 0.30 0.33 0.29 0.28 0.26 0.27 0.21 0.28 0.26 0.24 0.22 0.16
0.67 0.65 0.66 0.69 0.70 0.70 0.69 0.69 0.69 0.68 0.66 0.64 0.61 0.58 0.57 0.59 0.57 0.56 0.65 0.74 0.76 0.61 0.15 0.32 0.38 0.52 0.45 0.38 0.40 0.42 0.51 0.43 0.33 0.32 0.32 0.26 0.27 0.27 0.25 0.26 0.29 0.24 0.30 0.27 0.26 0.23 0.23
0.68 0.66 0.69 0.69 0.70 0.71 0.71 0.71 0.70 0.69 0.68 0.66 0.65 0.61 0.58 0.48 0.48 0.57 0.71 0.74 0.65 0.27 0.15 0.28 0.37 0.36 0.36 0.40 0.41 0.45 0.43 0.45 0.41 0.32 0.31 0.28 0.34 0.31 0.29 0.30 0.30 0.31 0.29 0.30 0.29 0.26 0.16
0.69 0.70 0.73 0.72 0.73 0.72 0.72 0.71 0.70 0.68 0.67 0.67 0.66 0.65 0.60 0.58 0.40 0.61 0.64 0.54 0.24 0.18 0.27 0.26 0.29 0.35 0.35 0.34 0.37 0.39 0.36 0.32 0.26 0.21 0.21 0.26 0.27 0.31 0.31 0.25 0.29 0.29 0.26 0.19 0.16 0.16 0.14
0.73 0.74 0.74 0.77 0.76 0.75 0.75 0.74 0.73 0.71 0.69 0.66 0.66 0.64 0.61 0.63 0.66 0.64 0.54 0.32 0.18 0.21 0.23 0.35 0.34 0.34 0.28 0.32 0.31 0.31 0.28 0.23 0.29 0.28 0.23 0.19 0.15 0.24 0.30 0.26 0.25 0.26 0.26 0.19 0.13 0.13 0.14
0.74 0.74 0.72 0.74 0.75 0.75 0.75 0.74 0.73 0.73 0.73 0.72 0.71 0.63 0.57 0.63 0.68 0.63 0.39 0.21 0.18 0.22 0.29 0.29 0.29 0.24 0.25 0.29 0.30 0.29 0.26 0.24 0.28 0.29 0.20 0.19 0.19 0.29 0.30 0.31 0.31 0.26 0.23 0.30 0.24 0.25 0.20
0.72 0.73 0.73 0.73 0.73 0.75 0.75 0.75 0.74 0.76 0.77 0.77 0.63 0.55 0.53 0.75 0.71 0.54 0.31 0.21 0.21 0.28 0.31 0.29 0.21 0.25 0.20 0.23 0.22 0.23 0.23 0.27 0.26 0.30 0.33 0.26 0.18 0.25 0.28 0.31 0.33 0.32 0.35 0.24 0.28 0.19 0.17
0.78 0.78 0.78 0.78 0.78 0.77 0.75 0.75 0.74 0.74 0.76 0.80 0.62 0.45 0.59 0.77 0.69 0.43 0.23 0.22 0.23 0.28 0.29 0.24 0.21 0.21 0.22 0.21 0.22 0.22 0.24 0.28 0.31 0.31 0.34 0.31 0.26 0.22 0.29 0.26 0.26 0.30 0.28 0.30 0.31 0.30 0.23
0.94 0.92 0.85 0.79 0.79 0.80 0.77 0.75 0.75 0.76 0.77 0.79 0.66 0.40 0.69 0.79 0.45 0.43 0.31 0.34 0.39 0.36 0.38 0.33 0.31 0.27 0.23 0.24 0.23 0.24 0.23 0.28 0.36 0.36 0.29 0.34 0.30 0.22 0.25 0.35 0.38 0.35 0.31 0.32 0.27 0.27 0.35
0.99 0.96 0.95 0.89 0.88 0.87 0.87 0.86 0.84 0.78 0.81 0.75 0.59 0.58 0.81 0.77 0.39 0.41 0.47 0.45 0.48 0.44 0.42 0.40 0.37 0.39 0.39 0.33 0.29 0.32 0.33 0.41 0.42 0.38 0.35 0.39 0.33 0.25 0.26 0.33 0.40 0.35 0.39 0.42 0.43 0.43 0.34
0.84 0.85 0.84 0.83 0.82 0.80 0.76 0.74 0.74 0.77 0.77 0.78 0.72 0.53 0.61 0.67 0.63 0.53 0.49 0.48 0.48 0.61 0.57 0.57 0.52 0.53 0.48 0.44 0.48 0.42 0.43 0.51 0.53 0.50 0.53 0.53 0.43 0.37 0.29 0.33 0.41 0.38 0.42 0.45 0.44 0.37 0.37
0.56 0.56 0.57 0.60 0.62 0.60 0.57 0.53 0.51 0.48 0.48 0.61 0.67 0.58 0.68 0.50 0.54 0.54 0.56 0.55 0.51 0.51 0.61 0.62 0.55 0.56 0.55 0.48 0.50 0.49 0.53 0.54 0.58 0.61 0.59 0.57 0.44 0.48 0.45 0.46 0.49 0.46 0.44 0.45 0.42 0.43 0.38
0.50 0.49 0.49 0.49 0.48 0.48 0.46 0.44 0.42 0.39 0.36 0.42 0.37 0.43 0.51 0.48 0.54 0.51 0.48 0.45 0.49 0.55 0.60 0.57 0.57 0.60 0.60 0.54 0.57 0.51 0.58 0.57 0.53 0.59 0.56 0.57 0.44 0.49 0.41 0.46 0.47 0.42 0.43 0.45 0.45 0.44 0.45
0.45 0.45 0.45 0.45 0.44 0.44 0.43 0.42 0.42 0.40 0.35 0.25 0.29 0.33 0.32 0.31 0.32 0.34 0.37 0.39 0.43 0.47 0.53 0.58 0.54 0.51 0.51 0.58 0.64 0.65 0.68 0.64 0.62 0.56 0.53 0.51 0.46 0.42 0.33 0.42 0.43 0.34 0.34 0.39 0.40 0.43 0.42
0.36 0.36 0.36 0.37 0.39 0.40 0.41 0.41 0.42 0.42 0.42 0.34 0.31 0.29 0.21 0.14 0.17 0.18 0.20 0.27 0.30 0.33 0.31 0.38 0.44 0.44 0.53 0.63 0.63 0.61 0.61 0.60 0.56 0.57 0.60 0.47 0.46 0.43 0.34 0.38 0.24 0.32 0.40 0.42 0.40 0.41 0.45
0.31 0.31 0.31 0.32 0.33 0.34 0.35 0.35 0.36 0.38 0.41 0.36 0.35 0.30 0.23 0.15 0.17 0.15 0.15 0.18 0.16 0.16 0.17 0.23 0.31 0.41 0.46 0.46 0.42 0.39 0.40 0.43 0.46 0.53 0.53 0.54 0.50 0.38 0.32 0.30 0.33 0.36 0.40 0.40 0.38 0.37 0.44
0.31 0.31 0.31 0.31 0.32 0.32 0.34 0.34 0.34 0.35 0.36 0.35 0.31 0.34 0.28 0.19 0.15 0.23 0.18 0.17 0.16 0.13 0.13 0.12 0.15 0.22 0.18 0.18 0.23 0.27 0.26 0.33 0.34 0.39 0.49 0.51 0.52 0.41 0.35 0.27 0.23 0.32 0.40 0.44 0.45 0.31 0.39
0.31 0.31 0.32 0.32 0.31 0.33 0.31 0.35 0.34 0.33 0.34 0.34 0.31 0.34 0.27 0.17 0.20 0.22 0.18 0.17 0.21 0.18 0.15 0.16 0.17 0.13 0.15 0.14 0.13 0.13 0.16 0.31 0.24 0.28 0.31 0.32 0.36 0.32 0.31 0.29 0.32 0.36 0.39 0.42 0.28 0.27 0.36
0.35 0.35 0.33 0.34 0.35 0.35 0.34 0.33 0.35 0.39 0.39 0.35 0.29 0.35 0.28 0.21 0.20 0.22 0.23 0.19 0.21 0.20 0.15 0.17 0.15 0.18 0.15 0.13 0.13 0.18 0.21 0.24 0.20 0.25 0.25 0.24 0.23 0.25 0.28 0.26 0.24 0.35 0.35 0.29 0.30 0.32 0.32
0.44 0.46 0.43 0.39 0.38 0.38 0.37 0.37 0.34 0.32 0.37 0.44 0.33 0.39 0.40 0.28 0.22 0.26 0.28 0.30 0.29 0.26 0.23 0.23 0.18 0.21 0.21 0.17 0.16 0.14 0.10 0.17 0.21 0.18 0.24 0.20 0.24 0.23 0.24 0.23 0.27 0.29 0.28 0.29 0.30 0.29 0.29
Wind_Speed
12 12 12 12 12 12 12 11 9 7 5 3 2 2 3 4 5 5 5 6 5 5 5 4 4 4 4 5 6 4 4 4 4 4 4 5 5 5 6 6 7 7 7 7 8 8 9
10 10 11 11 11 11 11 10 10 8 6 3 1 1 2 4 5 5 6 6 6 6 7 7 6 6 5 6 5 5 6 6 5 5 6 6 7 7 7 8 8 8 9 10 10 9 10
8 8 9 9 9 9 10 10 9 9 7 5 2 1 2 4 5 6 7 7 7 7 7 8 7 7 7 8 7 6 7 7 7 7 7 7 8 8 8 10 10 10 11 12 11 10 11
6 7 7 8 8 8 9 9 9 8 8 7 5 3 3 4 6 7 8 9 9 9 9 8 8 8 9 8 8 8 8 8 9 9 9 9 9 9 10 10 11 11 10 11 11 11 12
6 6 6 7 7 7 8 8 8 8 8 7 6 5 4 4 5 6 8 10 10 11 11 11 11 10 11 9 10 10 10 10 11 11 11 11 11 11 11 11 12 12 12 12 15 13 13
7 7 7 7 7 8 8 8 8 8 8 8 7 7 6 6 6 8 9 10 10 11 11 11 12 11 12 11 11 12 12 12 12 12 12 12 12 12 12 11 13 13 14 14 15 14 15
8 7 8 8 8 9 9 9 9 9 9 9 9 9 8 7 7 8 8 8 10 11 12 13 12 13 13 14 14 14 14 13 13 13 14 14 13 15 15 15 14 14 15 16 17 18 18
8 8 9 9 10 10 10 10 10 10 11 11 11 11 10 9 9 8 8 8 10 12 15 16 17 17 17 16 16 16 15 15 14 15 14 14 17 16 14 14 15 15 16 18 19 17 18
9 9 10 10 10 11 11 12 12 12 12 13 13 13 12 12 10 10 9 10 12 14 15 16 16 16 16 15 16 16 15 14 15 15 16 15 15 14 15 15 16 17 17 18 20 20 20
10 11 11 11 12 12 13 13 14 14 14 14 15 15 14 14 11 12 12 12 13 14 13 15 14 14 14 14 14 14 14 14 14 15 15 18 17 16 16 17 16 18 18 18 19 19 20
13 13 13 13 14 14 15 15 15 16 16 16 17 17 16 13 14 13 14 14 14 13 12 11 12 12 12 13 13 14 15 15 17 17 16 18 17 17 18 19 17 19 17 18 19 20 22
16 16 15 16 16 17 17 18 18 18 19 19 19 19 17 15 15 15 16 16 15 12 16 13 13 14 14 15 15 15 16 17 18 19 20 22 20 19 19 18 18 18 18 19 20 20 22
18 18 18 18 18 19 20 20 21 22 22 22 22 22 19 18 17 18 17 16 15 14 15 15 16 15 17 17 18 18 18 19 19 18 20 19 20 21 21 20 20 19 18 20 21 19 22
20 20 20 21 21 22 23 23 24 25 25 26 25 24 22 21 20 20 19 17 18 18 18 18 17 18 20 19 22 21 21 22 23 20 20 21 23 20 20 21 20 20 19 18 22 22 25
21 22 23 23 24 24 26 26 27 27 28 28 28 25 24 23 22 22 20 20 22 21 20 20 21 22 23 22 22 21 23 23 22 22 22 21 25 21 22 21 22 22 22 23 24 24 25
22 23 24 25 26 26 27 28 28 29 30 30 27 26 25 24 23 23 22 25 25 23 23 23 24 23 25 23 22 23 24 24 24 24 23 24 27 25 24 24 24 24 23 22 22 23 26
23 25 25 26 27 28 29 29 30 30 31 30 27 25 25 25 25 25 26 28 28 28 27 26 28 28 29 28 27 27 27 27 26 24 25 25 26 28 26 27 27 26 27 26 25 25 26
24 25 26 27 27 29 30 31 31 32 31 28 27 26 26 28 27 26 27 28 28 29 28 30 30 31 31 30 30 31 31 30 27 26 28 29 28 31 33 31 31 31 31 29 28 29 29
24 25 26 27 29 29 30 31 32 32 32 31 30 31 28 26 27 28 30 31 31 31 31 29 31 31 30 31 30 31 32 32 32 30 28 29 29 31 32 29 29 30 29 30 29 29 38
23 24 26 28 29 30 31 32 33 33 33 31 30 29 29 29 29 30 30 32 31 30 32 32 33 32 31 33 34 34 33 33 32 32 30 29 31 32 39 36 28 30 32 32 33 34 33
24 25 26 27 29 30 31 33 34 35 34 32 31 32 31 30 31 32 33 35 38 37 34 32 32 32 32 33 34 36 35 35 33 34 34 34 42 37 43 43 40 42 42 37 38 39 35
24 25 26 27 28 29 30 30 31 31 31 29 31 31 34 35 35 35 36 36 39 38 37 39 39 39 40 42 41 43 41 41 41 35 35 35 40 37 43 40 38 42 46 43 45 45 43
25 26 27 28 28 29 30 30 30 30 28 27 30 32 33 35 35 36 34 32 32 33 34 31 35 39 37 38 39 42 45 46 44 40 37 35 35 34 41 41 41 41 48 45 44 41 39
27 28 29 30 31 32 32 32 31 30 29 28 29 30 31 33 33 34 37 39 39 38 41 43 40 39 38 43 46 45 44 45 46 48 44 42 40 37 40 38 40 42 38 37 39 38 34
28 30 31 32 33 34 34 34 33 33 32 30 30 29 29 31 31 35 33 33 38 39 38 42 40 40 45 42 39 38 38 39 44 48 47 46 44 39 39 43 44 39 36 34 33 34 35
30 31 32 33 34 34 35 34 34 33 33 32 31 31 30 31 28 30 31 31 32 34 35 36 40 40 41 41 39 37 35 34 33 36 36 41 46 43 42 42 44 33 33 35 33 31 33
32 34 34 35 35 35 36 35 34 33 33 32 31 31 31 32 30 27 29 31 32 32 33 34 33 35 32 33 36 37 39 37 35 33 32 32 34 41 45 41 27 25 26 25 22 25 24
35 36 37 37 37 36 36 35 34 33 32 32 31 31 30 31 34 30 27 31 33 32 32 31 29 25 28 26 28 29 31 28 33 37 33 30 29 25 23 26 26 25 25 23 24 23 21
38 39 39 38 37 37 36 34 34 34 32 31 30 30 29 29 31 35 35 31 30 30 29 26 27 28 26 25 25 26 30 31 28 30 28 28 27 27 21 19 21 23 22 22 20 20 21
Wind_Direction
50 48 47 47 48 49 50 50 53 58 66 78 111 152 176 190 200 202 201 201 204 213 216 233 260 272 242 237 241 250 264 273 272 278 281 277 284 290 293 297 302 293 289 281 282 277 282
41 41 41 41 42 43 43 42 44 44 47 51 67 180 207 215 218 218 218 219 227 231 238 252 265 265 250 251 250 260 267 268 277 279 283 283 280 284 292 295 295 295 289 284 287 279 284
26 28 30 32 33 34 34 34 34 35 34 28 12 314 262 249 240 234 232 235 240 243 251 257 263 259 256 252 253 266 269 267 274 277 280 282 283 286 291 294 294 294 295 292 279 279 284
3 9 13 18 21 23 23 22 23 24 23 18 5 335 301 272 253 246 246 248 250 251 253 260 264 262 259 255 258 264 274 269 273 278 280 280 285 286 289 290 300 296 295 297 285 282 286
341 347 353 358 2 5 6 7 7 8 8 5 0 343 320 290 265 259 258 257 259 257 257 262 264 261 264 259 259 265 272 273 274 276 280 280 284 286 290 290 297 297 285 284 294 276 285
324 326 332 336 340 343 346 348 349 351 350 349 346 340 324 297 274 280 269 263 261 260 261 261 261 265 260 260 262 269 272 274 273 275 280 282 285 285 288 287 282 282 286 283 282 285 282
312 312 316 320 324 327 329 331 333 333 332 332 330 328 321 300 284 285 272 268 269 268 262 255 259 261 264 267 269 269 270 272 273 276 273 281 282 274 276 275 282 284 282 282 284 288 287
306 306 309 312 315 318 320 321 322 321 321 319 318 316 312 301 283 287 277 273 273 272 276 265 263 265 265 267 270 267 268 269 269 269 273 282 274 279 281 280 282 283 284 284 288 288 286
304 303 305 308 310 313 315 315 316 315 315 313 311 308 304 298 280 282 280 278 280 281 274 272 263 263 264 263 267 266 263 268 268 268 267 268 281 280 280 280 279 280 279 283 283 293 289
301 300 302 304 306 308 310 311 312 312 312 310 309 305 301 294 275 281 279 283 285 286 280 270 265 265 264 264 269 263 265 268 271 269 270 275 279 274 277 278 274 284 281 284 287 294 289
295 295 296 298 300 302 305 307 307 308 308 308 306 305 298 288 278 278 280 283 285 284 283 268 263 265 263 260 271 267 268 271 271 273 274 277 273 274 274 275 273 280 286 286 288 288 294
290 291 291 294 296 298 300 302 303 304 304 303 302 301 294 284 280 278 280 281 281 280 268 270 269 269 266 265 267 270 272 275 277 276 275 274 278 273 273 280 276 280 286 291 291 289 289
286 286 288 291 292 295 297 299 299 300 300 299 298 296 288 282 278 279 279 278 280 260 277 272 270 268 268 268 270 268 271 272 271 278 276 279 274 276 275 277 279 277 287 291 292 289 282
282 284 287 289 291 292 294 296 297 298 297 297 295 291 284 279 278 278 276 275 263 268 268 277 275 273 269 269 274 273 275 275 270 272 278 276 285 269 272 271 273 271 271 276 281 283 288
282 284 286 288 290 291 293 293 295 296 297 296 292 286 281 279 277 275 272 267 263 267 273 273 275 273 274 273 271 273 271 271 269 262 268 274 278 277 276 276 274 275 274 280 281 284 288
283 285 287 287 289 292 293 293 294 295 296 294 288 284 279 276 276 273 270 267 268 270 272 272 267 267 270 272 272 271 273 274 274 267 272 274 281 278 277 276 277 274 276 284 284 282 281
286 287 288 289 290 292 294 294 294 295 295 293 285 281 276 276 275 273 267 268 273 271 270 268 270 271 269 272 270 271 272 275 273 274 271 272 272 278 276 272 270 275 276 276 277 274 278
291 291 291 291 292 293 294 295 294 295 295 290 283 279 277 278 275 271 270 270 274 273 271 272 271 270 269 270 271 270 269 269 270 271 271 271 273 274 271 277 275 273 271 267 270 276 277
294 293 294 292 293 294 296 297 296 295 293 287 283 279 278 274 272 272 273 274 273 274 272 271 272 270 272 270 272 268 271 273 270 269 269 270 272 280 283 281 279 274 273 271 276 278 269
302 300 298 297 296 296 295 297 297 295 293 284 281 279 277 275 274 274 276 275 274 275 274 272 273 271 271 271 269 273 273 276 273 270 267 267 269 268 272 274 278 274 274 273 270 273 275
306 305 304 303 302 300 299 299 297 295 292 280 277 276 276 274 274 276 276 275 277 277 273 275 274 271 271 274 273 270 272 274 271 270 269 268 271 270 272 274 274 274 274 271 267 269 270
312 310 308 307 306 305 305 304 304 303 298 281 279 278 278 276 277 275 276 273 277 279 277 274 272 277 276 272 272 276 275 273 273 272 269 270 271 271 272 275 272 272 270 269 269 270 270
316 314 313 311 310 309 308 307 307 306 303 289 284 281 278 278 278 279 277 279 280 283 276 278 284 282 277 279 281 279 276 271 270 268 269 269 272 270 273 277 276 271 269 269 270 270 268
316 314 312 310 309 307 305 305 304 304 302 295 289 285 282 279 280 278 278 279 280 281 276 277 277 278 279 281 281 277 273 271 268 265 264 268 268 272 275 276 269 276 280 277 269 274 276
320 318 315 312 309 307 305 303 301 299 298 295 292 289 286 283 283 283 281 280 281 279 276 276 275 278 282 280 278 276 274 274 269 264 264 264 264 270 271 269 274 278 281 280 276 279 281
324 321 318 315 312 309 306 303 301 298 296 293 291 289 286 285 284 286 286 284 285 283 281 279 283 281 280 276 273 273 276 278 275 278 274 267 263 263 268 270 274 282 280 280 274 273 288
329 324 320 317 313 310 307 303 301 297 295 293 290 288 286 284 285 289 284 286 287 286 283 287 290 289 283 279 275 271 268 273 275 277 281 278 275 266 265 266 269 280 282 280 270 284 288
335 332 326 320 315 312 308 304 300 297 294 291 290 287 285 283 285 284 283 284 286 284 284 290 294 290 291 288 281 279 276 271 271 277 276 275 278 279 281 271 260 293 280 281 278 285 283
336 332 329 325 320 315 310 306 303 297 295 294 289 289 287 284 284 289 288 284 282 281 282 286 287 293 292 293 291 288 281 275 274 273 277 270 272 273 274 267 274 288 289 287 285 281 287